Tracking 35280 objects as of 7-Sep-2026
HD Live streaming from Space Station
objects crossing your sky now

SL-4 R/B


SL-4 R/B is no longer on orbit


NORAD ID: 35642
Int'l Code: 2009-040B
Launch date: July 24, 2009
Source: Commonwealth of Independent States (former USSR) (CIS)
Launch site: TYURATAM MISSILE AND SPACE COMPLEX (TTMTR)
Decay date: 2009-07-28

Note: This is a ROCKET BODY
Your satellite tracking list
Your tracking list is empty




NASA's NSSDC Master Catalog

Two Line Element Set (TLE):
1 35642U 09040B   09209.00078259  .11158405  12575-4  24261-3 0  9991
2 35642 051.6198 096.6097 0003389 097.8158 262.6693 16.46620761   553
Source of the keplerian elements: AFSPC